www.pogodaiklimat.ru

Погода и климат >> Архив погоды >> Египет >> Фарафра


ПОГОДА в Фарафре

  • Прогноз погоды в Фарафре
  • Монитор погоды в Фарафре

АРХИВ ПОГОДЫ в Фарафре

Время (UTC), дата Ветер
(напр.,м/с)
 
Видим.   Явления Облачность Т
(С)
Тd
(С)
f
(%)
Тe
(С)
Тes
(С)
Комфортность P
(гПа)
Po
(гПа)
Тmin
(С)
Tmax
(С)
R
(мм)
R24
(мм)
S
(см)
15 16.07 ЮЗ 4 10 км ясно +42.4 +11.2 16 +41 +44 опасность
перегрева
1001.9 993.5
00 17.07 0 <100 м C/0 <50 м
[Ac trans]
+18.4 +17.1 92 1011.3 997.9
06 17.07 0 10 км C/3 <50 м
[Sc Ac trans]
+23.0 +18.2 74 1008.0 994.9 +18.4
09 17.07 0 н/о +31.9 +22.3 57 1005.1
15 17.07 0 н/о +30.5 +18.6 49 1004.8
18 17.07 0 30 км C/6 50 м
[Sc As op]
+22.6 +18.3 77 1006.1 993.0 +28.4
21 17.07 0 н/о +26.7 +21.0 71 1006.8
03 18.07 З 3 10 км ясно +22.8 +19.6 82 +29 +29 очень
душно
1008.0 999.0
06 18.07 13 км 4/4 200 м
[Cu hum Ac trans]
+24.6 +18.7 70 1005.8 992.8 +19.6 0.0
09 18.07 СЗ 3 10 км 4/4 600 м
[Sc]
+29.9 +19.7 54 1008.9
12 18.07 З 2 20 км 10/6 1000 м
[Sc As op]
+26.8 +20.4 68 +33 +35 очень
душно
1005.5 992.5
18 18.07 З 4 50 м морось {туман} ?/? +14.5 +14.5 100 +13 +13 872.6
21 18.07 С 1 10 км ясно +26.2 +19.6 67 +32 +32 очень
душно
1011.2 1002.2
00 19.07 З 2 50 м туман {дождь} ?/? +13.6 +13.6 100 +13 +13 872.8
09 19.07 С 2 10 км 5/5 600 м
[Cu Sc]
+29.7 +18.8 52 +35 +45 очень
душно
1012.4 1003.5
12 19.07 ЮЗ 2 20 км 10/6 1000 м
[Sc As op]
+24.4 +19.5 74 +30 +31 очень
душно
1013.4 1000.3
15 19.07 С 3 10 км ясно +29.4 +19.4 55 +35 +38 очень
душно
1011.8 1002.9
18 19.07 СЗ 1 10 км 10/6 1000 м
[Sc As op]
+22.0 +20.4 91 +28 +28 душно 1019.9 1002.7 +24.8
21 19.07 З 2 50 м туман {дождь} ?/? +14.9 +14.9 100 +15 +15 878.3
06 20.07 штиль 0 20 км 10/6 1000 м
[Sc As op]
+22.4 +20.1 87 +29 +29 очень
душно
1016.8 1003.5 +21.4
09 20.07 З 1 20 км 10/6 1000 м
[Sc As op]
+25.6 +20.6 74 +32 +34 очень
душно
1016.0 1002.9
21 20.07 СЗ 2 10 км ясно +26.0 +18.2 62 +31 +31 очень
душно
1013.1 1004.1
00 21.07 З 1 10 км в посл. час ливневой дождь 10/6 1000 м
[Sc As op]
+20.8 +19.0 89 +26 +26 душно 1015.2 1001.9
03 21.07 СЗ 2 10 км 5/5 600 м
[Cu Sc]
+25.3 +19.7 71 +31 +31 очень
душно
1011.7 1002.7
06 21.07 СЗ 4 10 км 6/6 600 м
[Cu Sc]
+27.7 +20.3 64 +34 +36 очень
душно
1012.1 1003.2 +25.0
09 21.07 СЗ 5 10 км 4/4 600 м
[Cu med, cong]
+30.6 +19.3 51 1012.0
12 21.07 ЮЗ 2 20 км 10/6 600 м
[Sc As op]
+24.4 +20.4 78 +30 +32 очень
душно
1013.6 1000.5
03 22.07 штиль 0 50 км 10/10 1000 м
[Sc]
+20.0 +16.9 82 +22 +22 комфорт 1009.9 901.4 8
09 22.07 СЗ 5 10 км 3/3 600 м
[Cu med, cong]
+29.7 +21.1 60 +37 +44 очень
душно
1009.7 1000.9
15 22.07 СЗ 5 10 км ясно +29.5 +21.7 63 +38 +40 очень
душно
1008.5 999.7
18 22.07 штиль 0 10 км 10/6 1000 м
[Sc As op]
+22.6 +20.1 86 +29 +29 очень
душно
1013.3 1000.2 +23.8 0.0
21 22.07 СЗ 3 10 км ясно +26.2 +21.8 77 +34 +34 очень
душно
1008.6 999.7
00 23.07 СЗ 3 н/о пыльная буря {морось} 9/9 600 м
[Cu hum]
+23.5 +19.0 76 +28 +28 душно 1009.0 961.4
03 23.07 З 2 10 км ясно +22.6 +20.3 87 +29 +29 очень
душно
1008.9 999.8
06 23.07 В 1 20 км {ливн. осадки} 10/6 1000 м
[Sc As op]
+21.8 +20.0 90 +27 +28 душно 1012.0 998.8 +20.4 1

 

Местоположение метеостанции Фарафра (Египет): широта 27.05 долгота 27.98 высота над уровнем моря 78 м.

В архиве по умолчанию представлена погода в Фарафре за последнюю неделю. Архивные данные за месяц целиком и за предыдущие месяцы, начиная с января 2011 года, Вы можете получить, выбрав интересующий диапазон дат из раскрывающегося списка и нажав кнопку "Ввод!".


*Определитесь, кто Вы:
робот инопланетянин человек

Внимание! Время в таблицах - всемирное. Для получения местного времени необходимо прибавить поправку, которая равна 2 ч.

Смотрите также архив погоды в соседних городах и на ближайших метеорологических станциях:

Погода в Бахарии (Египет) (169 км)
Погода в Дахле (Египет) (202 км)
Погода в Миня (Египет) (294 км)
Погода в Асьюте (Египет) (301 км)
Погода в Харге (Египет) (310 км)
Погода в Сиве (Египет) (354 км)
Погода в Вади-эль-Натруон (Египет) (431 км)
Погода в Дабаа (Египет) (434 км)
Погода в Каире (Египет) (478 км)
Погода в Мерса Матрух (Египет) (482 км)

Пояснения к столбцам:

Ветер - указаны скорость ветра в м/с - средняя за 10 мин, порывы в срок и между сроками (в фигурных скобках) и направление, откуда дует ветер: С - северный, СВ - северо-восточный, В - восточный, ЮВ - юго-восточный, Ю - южный, ЮЗ - юго-западный, З - западный, СЗ - северо-западный.
Видимость - горизонтальная дальность видимости в метрах или километрах. При видимости от 1 до 10 км при отсутствии осадков обычно наблюдается дымка, при ухудшении видимости до 1 км и менее - туман. В сухую погоду видимость может ухудшаться дымом, пылью или мглою.
Явления - указаны атмосферные явления, наблюдавшиеся в срок или в последний час перед сроком; фигурными скобками обозначены явления, наблюдавшиеся между сроками (за 1-3 часа до срока); квадратными скобками обозначены град или гололедные отложения с указанием их диаметра в мм.
Облачность - указаны через наклонную черту общая и нижняя облачность в баллах и высота нижней границы облаков в метрах; квадратными скобками обозначены формы облаков: Ci - перистые, Cs - перисто-слоистые, Cc - перисто-кучевые, Ac - высококучевые, As - высокослоистые, Sc - слоисто-кучевые, Ns - слоисто-дождевые, Cu - кучевые, Cb - кучево-дождевые. Подробнее классификацию облаков см. в Атласе облаков (PDF).
T - Температура воздуха - температура, измеренная на высоте 2 м над землей.
Td - Температура точки росы - температура, при понижении до которой содержащийся в воздухе водяной пар достигнет насыщения.
f - Относительная влажность воздуха - влажноcть воздуха, измеренная на высоте 2 м над землей.
Te - Эффективная температура - температура, которую ощущает одетый по сезону человек в тени. Характеристика душности погоды. При расчете учитывается влияние влажности воздуха и скорости ветра на теплоощущения человека.
Tes - Эффективная температура на солнце - температура, которую ощущает человек, с поправкой на солнечный нагрев. Характеристика знойности погоды. Зависит от высоты солнца над горизонтом, облачности и скорости ветра. Ночью, в пасмурную погоду, а также при ветре 12 м/с и более поправка равна нулю.
P - Атмосферное давление - приведенное к уровню моря атмосферное давление.
Po - Атмосферное давление - измеренное на уровне метеостанции атмосферное давление.
Tmin - Минимальная температура - минимум температуры воздуха на высоте 2 м над землей.
Tmax - Максимальная температура - максимум температуры воздуха на высоте 2 м над землей.
R - Количество осадков - Количество выпавших осадков за период времени, мм. При наведении курсора мыши на число - период времени, за который выпало указанное количество осадков.
R24 - Количество осадков - Количество выпавших осадков за 24 часа, мм.
S - Снежный покров - Высота снежного покрова, см. При наведении курсора мыши на число - состояние снежного покрова и степень покрытия местности в баллах.